Satellite: AUBIESAT Catalog number: 37854 Epoch time: 13172.18115231 Element set: 526 Inclination: 101.7162 deg RA of node: 028.5423 deg Eccentricity: 0.0234879 Arg of perigee: 014.7149 deg Mean anomaly: 097.8578 deg Mean motion: 14.84440463 rev/day Decay rate: 5.370e-05 rev/day^2 Epoch rev: 8905 Checksum: 304
Satellite: HRBE Catalog number: 37855 Epoch time: 13178.58433101 Element set: 530 Inclination: 101.7155 deg RA of node: 037.6807 deg Eccentricity: 0.0235695 Arg of perigee: 356.8280 deg Mean anomaly: 081.5658 deg Mean motion: 14.84157400 rev/day Decay rate: 3.659e-05 rev/day^2 Epoch rev: 8999 Checksum: 327
Satellite: RS-39 Catalog number: 38051 Epoch time: 13175.94515448 Element set: 552 Inclination: 051.6338 deg RA of node: 173.1243 deg Eccentricity: 0.0010666 Arg of perigee: 298.5424 deg Mean anomaly: 104.5026 deg Mean motion: 15.32905070 rev/day Decay rate: 1.2668e-04 rev/day^2 Epoch rev: 7897 Checksum: 310
Satellite: E-STAR Catalog number: 38079 Epoch time: 13178.77625615 Element set: 243 Inclination: 069.4740 deg RA of node: 157.2829 deg Eccentricity: 0.0605911 Arg of perigee: 123.2170 deg Mean anomaly: 308.9358 deg Mean motion: 14.47743089 rev/day Decay rate: 3.5458e-04 rev/day^2 Epoch rev: 7127 Checksum: 330
Satellite: GOLIAT Catalog number: 38085 Epoch time: 13178.86995484 Element set: 156 Inclination: 069.4695 deg RA of node: 159.3079 deg Eccentricity: 0.0615965 Arg of perigee: 124.2306 deg Mean anomaly: 321.6837 deg Mean motion: 14.45592509 rev/day Decay rate: 3.5945e-04 rev/day^2 Epoch rev: 7122 Checksum: 351
Satellite: HORYU-2 Catalog number: 38340 Epoch time: 13172.25296520 Element set: 531 Inclination: 098.2127 deg RA of node: 119.9390 deg Eccentricity: 0.0011462 Arg of perigee: 236.7563 deg Mean anomaly: 123.2549 deg Mean motion: 14.70970199 rev/day Decay rate: 1.070e-05 rev/day^2 Epoch rev: 5871 Checksum: 292
Satellite: RS-40 Catalog number: 38736 Epoch time: 13175.47851411 Element set: 303 Inclination: 082.4779 deg RA of node: 150.5786 deg Eccentricity: 0.0020642 Arg of perigee: 314.5084 deg Mean anomaly: 045.4315 deg Mean motion: 12.42868763 rev/day Decay rate: 1.0e-07 rev/day^2 Epoch rev: 4115 Checksum: 285
Satellite: PROITERES Catalog number: 38756 Epoch time: 13172.52669725 Element set: 885 Inclination: 098.2523 deg RA of node: 249.6505 deg Eccentricity: 0.0013920 Arg of perigee: 092.2585 deg Mean anomaly: 268.0220 deg Mean motion: 14.74239120 rev/day Decay rate: 4.02e-06 rev/day^2 Epoch rev: 4203 Checksum: 289
Satellite: RAIKO Catalog number: 38852 Epoch time: 13176.73066992 Element set: 262 Inclination: 051.6378 deg RA of node: 043.9203 deg Eccentricity: 0.0006461 Arg of perigee: 073.5795 deg Mean anomaly: 286.5739 deg Mean motion: 15.83832567 rev/day Decay rate: 2.25347e-03 rev/day^2 Epoch rev: 4122 Checksum: 326
Satellite: FITSAT 1 Catalog number: 38853 Epoch time: 13178.70064846 Element set: 287 Inclination: 051.6380 deg RA of node: 025.4923 deg Eccentricity: 0.0005405 Arg of perigee: 272.5027 deg Mean anomaly: 087.4810 deg Mean motion: 16.09993790 rev/day Decay rate: 8.33104e-03 rev/day^2 Epoch rev: 4170 Checksum: 305
Satellite: TechEdSat Catalog number: 38854 Epoch time: 13124.93253577 Element set: 290 Inclination: 051.6449 deg RA of node: 297.0261 deg Eccentricity: 0.0010505 Arg of perigee: 310.8629 deg Mean anomaly: 049.0629 deg Mean motion: 16.38844728 rev/day Decay rate: 1.1592855e-01 rev/day^2 Epoch rev: 3329 Checksum: 325
Satellite: F 1 Catalog number: 38855 Epoch time: 13129.77714356 Element set: 287 Inclination: 051.5085 deg RA of node: 272.4145 deg Eccentricity: 0.0008326 Arg of perigee: 194.2908 deg Mean anomaly: 166.5495 deg Mean motion: 16.49710473 rev/day Decay rate: 2.7424026e-01 rev/day^2 Epoch rev: 3394 Checksum: 332
Satellite: WeWish Catalog number: 38856 Epoch time: 13069.98095549 Element set: 248 Inclination: 051.6166 deg RA of node: 215.0521 deg Eccentricity: 0.0008325 Arg of perigee: 316.0438 deg Mean anomaly: 044.8765 deg Mean motion: 16.41348316 rev/day Decay rate: 1.6701328e-01 rev/day^2 Epoch rev: 2458 Checksum: 318
Satellite: OSSI-1 Catalog number: 39131 Epoch time: 13176.33948492 Element set: 5 Inclination: 064.8570 deg RA of node: 159.2668 deg Eccentricity: 0.0097815 Arg of perigee: 021.9527 deg Mean anomaly: 338.6478 deg Mean motion: 15.96902042 rev/day Decay rate: 7.0935e-04 rev/day^2 Epoch rev: 1044 Checksum: 324
Satellite: BEESAT-3 Catalog number: 39134 Epoch time: 13178.80998513 Element set: 174 Inclination: 064.8755 deg RA of node: 175.2134 deg Eccentricity: 0.0012153 Arg of perigee: 206.5566 deg Mean anomaly: 153.4930 deg Mean motion: 15.00403763 rev/day Decay rate: 3.599e-05 rev/day^2 Epoch rev: 1042 Checksum: 294
Satellite: BEESAT-2 Catalog number: 39136 Epoch time: 13172.41122718 Element set: 151 Inclination: 064.8775 deg RA of node: 195.3101 deg Eccentricity: 0.0012903 Arg of perigee: 206.8774 deg Mean anomaly: 153.1679 deg Mean motion: 15.00322906 rev/day Decay rate: 1.990e-05 rev/day^2 Epoch rev: 946 Checksum: 284
/EX